Weather History for Siren, WI

Change the Weather History Date:

Wednesday, February 20, 2013

  Actual Average Record
Temperature  
Mean Temperature 3 °F -  
Max Temperature 19 °F - - ()
Min Temperature -13 °F - - ()
Degree Days  
Heating Degree Days 62    
Moisture  
Dew Point -3 °F    
Average Humidity 68    
Maximum Humidity 85    
Minimum Humidity 46    
Precipitation  
Precipitation 0.00 in - - ()
Sea Level Pressure  
Sea Level Pressure 30.40 in    
Wind  
Wind Speed 3 mph (NNE)    
Max Wind Speed 8 mph    
Max Gust Speed -    
Visibility 10 miles    
Events      
T = Trace of Precipitation, MM = Missing Value Source: NWS Daily Summary

Daily Weather History Graph

Daily Weather History Graph

Search for Another Location

Airport:

Trip Planner

Search our weather history database for the weather conditions in past years. The results will help you decide how hot, cold, wet, or windy it might be!

Date:

Astronomy

Feb. 20, 2013 Rise Set
Actual Time 7:03 AM CST 5:43 PM CST
Civil Twilight 6:32 AM CST 6:14 PM CST
Nautical Twilight 5:58 AM CST 6:48 PM CST
Astronomical Twilight 5:23 AM CST 7:23 PM CST
Moon 12:56 PM CST (2/20) 3:33 AM CST (2/20)
Length of Visible Light 11h 41m
Length of Day
10h 40m
Waxing Gibbous, 76% of the Moon is Illuminated
Feb 20
Waxing Gibbous
Feb 25
Full
Mar 4
Last Quarter
Mar 11
New
Mar 19
First Quarter

Hourly Weather History & Observations

Time (CST) Temp. Windchill Dew Point Humidity Pressure Visibility Wind Dir Wind Speed Gust Speed Precip Events Conditions
12:15 AM 1.4 °F -9.9 °F -5.8 °F 72% 30.30 in 10.0 mi North 5.8 mph - N/A   Clear
12:35 AM 1.4 °F -9.9 °F -5.8 °F 72% 30.32 in 10.0 mi North 5.8 mph - N/A   Clear
12:55 AM 1.4 °F -12.5 °F -5.8 °F 72% 30.32 in 10.0 mi North 8.1 mph - N/A   Clear
1:15 AM 1.4 °F -6.2 °F -5.8 °F 72% 30.34 in 10.0 mi North 3.5 mph - N/A   Clear
1:35 AM -0.4 °F -8.3 °F -7.6 °F 72% 30.34 in 10.0 mi North 3.5 mph - N/A   Clear
1:55 AM -0.4 °F -10.4 °F -7.6 °F 72% 30.35 in 10.0 mi NW 4.6 mph - N/A   Clear
2:15 AM -4.0 °F -12.4 °F -9.4 °F 78% 30.36 in 10.0 mi WNW 3.5 mph - N/A   Clear
2:35 AM -2.2 °F -12.5 °F -7.6 °F 78% 30.37 in 10.0 mi WNW 4.6 mph - N/A   Clear
2:55 AM -5.8 °F -16.7 °F -9.4 °F 84% 30.37 in 10.0 mi WNW 4.6 mph - N/A   Clear
3:15 AM -5.8 °F -16.7 °F -9.4 °F 84% 30.38 in 10.0 mi NNW 4.6 mph - N/A   Clear
3:35 AM -5.8 °F -16.7 °F -9.4 °F 84% 30.38 in 10.0 mi NNW 4.6 mph - N/A   Clear
3:55 AM -5.8 °F - -9.4 °F 84% 30.39 in 10.0 mi Calm Calm - N/A   Clear
4:35 AM -9.4 °F - -14.8 °F 77% 30.40 in 10.0 mi Calm Calm - N/A   Clear
5:15 AM -11.2 °F - -16.6 °F 77% 30.40 in 10.0 mi Calm Calm - N/A   Clear
5:35 AM -13.0 °F - -18.4 °F 77% 30.41 in 10.0 mi Calm Calm - N/A   Clear
5:55 AM -13.0 °F - -20.2 °F 70% 30.42 in 10.0 mi Calm Calm - N/A   Clear
6:15 AM -13.0 °F - -16.6 °F 84% 30.42 in 10.0 mi Calm Calm - N/A   Clear
6:35 AM -11.2 °F - -16.6 °F 77% 30.42 in 10.0 mi Calm Calm - N/A   Clear
6:55 AM -13.0 °F - -18.4 °F 77% 30.42 in 10.0 mi Calm Calm - N/A   Mostly Cloudy
7:15 AM -13.0 °F - -18.4 °F 77% 30.43 in 10.0 mi Calm Calm - N/A   Overcast
7:35 AM -13.0 °F - -18.4 °F 77% 30.43 in 10.0 mi Calm Calm - N/A   Overcast
8:15 AM -5.8 °F - -11.2 °F 77% 30.44 in 10.0 mi Calm Calm - N/A   Overcast
8:35 AM -4.0 °F -12.4 °F -7.6 °F 85% 30.44 in 10.0 mi NNE 3.5 mph - N/A   Overcast
8:55 AM -0.4 °F -12.0 °F -5.8 °F 78% 30.44 in 10.0 mi NE 5.8 mph - N/A   Overcast
9:15 AM -0.4 °F -12.0 °F -5.8 °F 78% 30.43 in 10.0 mi NE 5.8 mph - N/A   Overcast
9:35 AM 1.4 °F -6.2 °F -4.0 °F 78% 30.43 in 10.0 mi NE 3.5 mph - N/A   Overcast
9:55 AM 3.2 °F -7.8 °F -4.0 °F 72% 30.43 in 10.0 mi NE 5.8 mph - N/A   Overcast
10:15 AM 5.0 °F -8.1 °F -0.4 °F 78% 30.43 in 10.0 mi ENE 8.1 mph - N/A   Scattered Clouds
10:35 AM 6.8 °F -3.5 °F -0.4 °F 72% 30.43 in 10.0 mi NE 5.8 mph - N/A   Clear
10:55 AM 6.8 °F -3.5 °F -0.4 °F 72% 30.43 in 10.0 mi ENE 5.8 mph - N/A   Clear
11:15 AM 10.4 °F - -0.4 °F 62% 30.43 in 10.0 mi Calm Calm - N/A   Clear
11:35 AM 8.6 °F - -0.4 °F 67% 30.42 in 10.0 mi Calm Calm - N/A   Clear
11:55 AM 10.4 °F 4.0 °F 1.4 °F 67% 30.42 in 10.0 mi NNE 3.5 mph - N/A   Clear
12:15 PM 12.2 °F 6.1 °F 1.4 °F 62% 30.42 in 10.0 mi North 3.5 mph - N/A   Clear
12:35 PM 12.2 °F 6.1 °F 1.4 °F 62% 30.42 in 10.0 mi NNW 3.5 mph - N/A   Clear
12:55 PM 12.2 °F 6.1 °F 1.4 °F 62% 30.41 in 10.0 mi North 3.5 mph - N/A   Clear
1:15 PM 14.0 °F 5.1 °F 1.4 °F 57% 30.41 in 10.0 mi North 5.8 mph - N/A   Clear
1:35 PM 14.0 °F - 1.4 °F 57% 30.40 in 10.0 mi Calm Calm - N/A   Clear
1:55 PM 15.8 °F 10.2 °F 3.2 °F 58% 30.42 in 10.0 mi ENE 3.5 mph - N/A   Clear
2:15 PM 15.8 °F 8.6 °F 1.4 °F 53% 30.42 in 10.0 mi NNE 4.6 mph - N/A   Clear
2:35 PM 17.6 °F 10.7 °F 3.2 °F 53% 30.42 in 10.0 mi NNW 4.6 mph - N/A   Clear
2:55 PM 17.6 °F - 1.4 °F 49% 30.43 in 10.0 mi Calm Calm - N/A   Clear
3:15 PM 17.6 °F 12.3 °F 3.2 °F 53% 30.43 in 10.0 mi NE 3.5 mph - N/A   Clear
3:35 PM 17.6 °F 12.3 °F 1.4 °F 49% 30.43 in 10.0 mi NNE 3.5 mph - N/A   Clear
3:55 PM 17.6 °F 10.7 °F 1.4 °F 49% 30.43 in 10.0 mi NNE 4.6 mph - N/A   Clear
4:15 PM 17.6 °F - 1.4 °F 49% 30.43 in 10.0 mi Calm Calm - N/A   Clear
4:35 PM 17.6 °F 10.7 °F 3.2 °F 53% 30.42 in 10.0 mi NE 4.6 mph - N/A   Clear
4:55 PM 19.4 °F - 1.4 °F 46% 30.42 in 10.0 mi Calm Calm - N/A   Clear
5:15 PM 17.6 °F - 1.4 °F 49% 30.42 in 10.0 mi Calm Calm - N/A   Clear
5:35 PM 15.8 °F - 1.4 °F 53% 30.42 in 10.0 mi Calm Calm - N/A   Clear
5:55 PM 14.0 °F - 1.4 °F 57% 30.42 in 10.0 mi Calm Calm - N/A   Clear
6:15 PM 8.6 °F - -0.4 °F 67% 30.41 in 10.0 mi Calm Calm - N/A   Clear
6:35 PM 10.4 °F - 1.4 °F 67% 30.41 in 10.0 mi Calm Calm - N/A   Clear
6:55 PM 12.2 °F 2.9 °F 1.4 °F 62% 30.41 in 10.0 mi East 5.8 mph - N/A   Clear
7:15 PM 14.0 °F 6.5 °F 1.4 °F 57% 30.40 in 10.0 mi NE 4.6 mph - N/A   Clear
7:35 PM 14.0 °F 3.9 °F 1.4 °F 57% 30.40 in 10.0 mi ENE 6.9 mph - N/A   Clear
7:55 PM 14.0 °F 5.1 °F 1.4 °F 57% 30.40 in 10.0 mi ENE 5.8 mph - N/A   Clear
8:15 PM 14.0 °F 6.5 °F 1.4 °F 57% 30.40 in 10.0 mi ENE 4.6 mph - N/A   Clear
8:35 PM 12.2 °F 6.1 °F 1.4 °F 62% 30.39 in 10.0 mi East 3.5 mph - N/A   Clear
8:55 PM 12.2 °F 4.3 °F 3.2 °F 67% 30.39 in 10.0 mi East 4.6 mph - N/A   Clear
9:15 PM 12.2 °F 4.3 °F 3.2 °F 67% 30.39 in 10.0 mi ENE 4.6 mph - N/A   Clear
9:35 PM 12.2 °F - 3.2 °F 67% 30.39 in 10.0 mi Calm Calm - N/A   Clear
9:55 PM 10.4 °F 4.0 °F 3.2 °F 73% 30.39 in 10.0 mi East 3.5 mph - N/A   Clear
10:15 PM 10.4 °F - 3.2 °F 73% 30.39 in 10.0 mi Calm Calm - N/A   Clear
10:35 PM 10.4 °F - 3.2 °F 73% 30.39 in 10.0 mi Calm Calm - N/A   Clear
10:55 PM 5.0 °F - -0.4 °F 78% 30.40 in 10.0 mi Calm Calm - N/A   Clear
11:15 PM 5.0 °F - -0.4 °F 78% 30.40 in 10.0 mi Calm Calm - N/A   Clear
11:35 PM -0.4 °F - -4.0 °F 85% 30.41 in 10.0 mi Calm Calm - N/A   Clear
11:55 PM 1.4 °F - -4.0 °F 78% 30.42 in 10.0 mi Calm Calm - N/A   Clear